Regional Weather Roundup
Issued by NWS

Home | Current Version | Previous Version | Graphics & Text | Print | Product List | Glossary On
Versions: 1 2 3 4 5 6 7 8 9 10 11 12 13 14 15 16 17 18 19 20 21 22 23 24 25 26 27 28 29 30 31 32 33 34 35 36 37 38 39 40 41 42 43 44 45 46 47 48 49 50
832
ASUS45 KTFX 232110
RWRMT
MONTANA REGIONAL WEATHER ROUNDUP
NATIONAL WEATHER SERVICE GREAT FALLS MT
200 PM MST TUE JAN 23 2018

NOTE: "FAIR" INDICATES FEW OR NO CLOUDS BELOW 12000 FEET WITH NO
SIGNIFICANT WEATHER AND/OR OBSTRUCTIONS TO VISIBILITY.

MTZ001>007-043-232200-
WEST OF THE DIVIDE

CITY           SKY/WX    TMP DP  RH WIND       PRES   REMARKS
KALISPELL      CLOUDY    35  25  66 S7        30.12F WCI  29
MISSOULA       FAIR      31  23  72 SE8       30.16F WCI  23
BUTTE          FAIR      29  14  53 CALM      30.13F
MULLAN PASS    CLOUDY    24  23  96 VRB6      30.01F WCI  17
ANACONDA         N/A     30  12  47 S16G30    30.12F WCI  19
DEER LODGE       N/A     32  18  55 S10G16    30.14F WCI  24
EUREKA           N/A     37  25  60 MISG      30.11F
HAMILTON         N/A     39  18  41 SE15      30.15F WCI  31
PLAINS           N/A     35  31  86 CALM      30.14F
RONAN            N/A     30  23  74 CALM      30.15F
$$

MTZ008-052>055-232200-
SOUTHWEST MONTANA

CITY           SKY/WX    TMP DP  RH WIND       PRES   REMARKS
BOZEMAN        FAIR      29  14  53 NE5       30.17F
DILLON         FAIR      22  14  71 SW13      30.16F WCI  10
ENNIS          MOSUNNY   32  16  51 S16       30.20F WCI  21
W YELLOWSTONE  LGT SNOW  19  16  86 SW8G15    30.21F WCI   9
THREE FORKS      N/A     32  17  54 NE5       30.13F
TWIN BRIDGES     N/A     30  12  47 S1        30.15F
$$

MTZ009-010-012-014-046-048-049-054-232200-
EAST SLOPES AND CENTRAL MONTANA

CITY           SKY/WX    TMP DP  RH WIND       PRES   REMARKS
CUT BANK       FAIR      37  16  42 W25       30.00F WCI  25
GREAT FALLS    FAIR      39  15  37 SW22G30   30.06F WCI  29
MALMSTROM AFB  FAIR      38  16  40 SW17      30.08F WCI  29
HELENA           N/A    N/A N/A N/A MISG      30.12F
AUGUSTA        FAIR      34  17  50 SW17      30.03F WCI  23
BOWMANS CRNR   FAIR      33  18  54 S15       30.04F WCI  23
CHOTEAU          N/A     37  14  38 SW8G14    30.04F WCI  31
FAIRFIELD      FAIR      38  13  36 SW15      30.04F WCI  29
POWER          FAIR      33  19  55 SW15      30.05F WCI  23
RAYNESFORD     FAIR      37  11  34 W18G25    30.07F WCI  27
ULM            FAIR      38  17  41 SW25G31   30.08  WCI  27
WHITE SULPHUR    N/A     27  14  59 S14G21    30.09F WCI  15
$$

MTZ011-013-016-021-045-047-050-051-232200-
NORTH CENTRAL MONTANA

CITY           SKY/WX    TMP DP  RH WIND       PRES   REMARKS
HAVRE          FAIR      30  24  78 SW15      30.09F WCI  19
LEWISTOWN      FAIR      33  21  61 SW10      30.09F WCI  25
N BAR RANCH    FAIR      34  12  40 W10       30.10F WCI  26
CHINOOK          N/A     36  23  60 NW3       30.09F
DENTON         FAIR      36  19  49 MISG      30.06F
GEYSER         FAIR      36  14  40 W16       30.06F WCI  26
GRASS RANGE    FAIR      36  13  38 W15       30.06F WCI  27
STANFORD         N/A     36  11  34 W13       30.06F WCI  28
WINIFRED       FAIR      37  18  47 W12       30.08F WCI  29
$$

MTZ017>020-022>027-061-062-232200-
NORTHEAST MONTANA

CITY           SKY/WX    TMP DP  RH WIND       PRES   REMARKS
GLASGOW        FAIR      23  16  74 N3        30.10F
GLENDIVE       FAIR      35  21  56 W15       30.12S WCI  25
JORDAN           N/A     34  23  64 W9        30.11F WCI  27
MALTA          SUNNY     23  18  80 W10       30.11F WCI  12
SIDNEY         FAIR      34  23  64 W7        30.11S WCI  28
WOLF POINT     FAIR      25  17  72 W8        30.12S WCI  16
PLENTYWOOD       N/A     32  21  64 CALM      30.07S
POPLAR           N/A     23  18  80 W9        30.12S WCI  13
SCOBEY           N/A     30  18  61 CALM      30.04F
$$

MTZ028>42-056>058-232200-
SOUTHCENTRAL AND SOUTHEAST MONTANA

CITY           SKY/WX    TMP DP  RH WIND       PRES   REMARKS
BAKER          FAIR      34  23  64 W14       30.12S WCI  25
BILLINGS       FAIR      37  18  46 SW10      30.15F WCI  30
LIVINGSTON     FAIR      35  20  54 W16       30.12F WCI  25
MILES CITY     FAIR      34  23  64 W14       30.14F WCI  25
BIG TIMBER     SUNNY     36  12  38 W22G28    30.13F WCI  24
EKALAKA          N/A     32  20  61 W10       30.09S WCI  24
FORSYTH          N/A     37  19  48 W7        30.16F
HARLOWTON      FAIR      32  17  53 W24       30.11F WCI  19
LAUREL           N/A     37  18  44 SW10      30.16F WCI  30
ROUNDUP          N/A     35  16  46 SW15      30.03F WCI  25
$$

REGIONAL REPORTS...DAKOTAS

CITY           SKY/WX    TMP DP  RH WIND       PRES   REMARKS
WILLISTON      FAIR      29  19  66 W13       30.10S WCI  19
MINOT          CLOUDY    22  18  85 W8        30.09S WCI  12
DICKINSON      FAIR      35  22  58 W16       30.06S WCI  25
BEACH          FAIR      32  23  69 W17       30.12F WCI  21
CROSBY         FAIR      23  23 100 W6        30.08F WCI  16
TIOGA          FAIR      19  19 100 W5        30.08F
WATFORD CITY   FAIR      32  21  64 W9        30.09S WCI  24
BISMARCK       FAIR      34  25  69 NW9       30.10S WCI  27
GRAND FORKS    CLOUDY    23  20  88 S6        30.08R WCI  16
FARGO          CLOUDY    23  19  85 SW9       30.10R WCI  13
BUFFALO SD       N/A     37  22  54 W17       30.06S WCI  27
RAPID CITY     FAIR      44  16  32 N23G30    30.12S
$$

REGIONAL REPORTS...WYOMING/IDAHO/WASHINGTON

CITY           SKY/WX    TMP DP  RH WIND       PRES   REMARKS
GILLETTE       FAIR      34  19  54 NW14      30.16F WCI  25
SHERIDAN       FAIR      35  18  49 N7        30.16F WCI  29
BUFFALO WY     FAIR      34  11  38 N8        30.16F WCI  27
CODY           FAIR      36   9  32 W13G21    30.14F WCI  27
YELLOWSTONE LA   N/A     19  12  74 VRB5      30.19F
IDAHO FALLS    CLOUDY    29  24  82 CALM      30.31F
SALMON         FAIR      25  17  72 CALM      30.26F
BOISE          FAIR      43  27  53 E15       30.24F
SPOKANE        CLOUDY    35  32  88 NE5       30.08F
$$

REGIONAL REPORTS...ALBERTA

CITY           SKY/WX    TMP DP  RH WIND       PRES   REMARKS
CALGARY        PTSUNNY   36   5  27 SW5       29.91F
EDMONTON       SUNNY     34  16  47 CALM      29.94F
FORT MCMURRAY  FLURRIES  14  10  85 E7        30.02F WCI   4
HIGH LEVEL     FLURRIES  10   7  85 S3        29.98S
LETHBRIDGE     MOSUNNY   37  18  44 W21G28    29.99F WCI  27
LLOYDMINSTER   MOSUNNY   23  21  93 VRB2      29.97F
MEDICINE HAT   MOSUNNY   34  21  60 SW15      30.02F WCI  24
PEACE RIVER    MOSUNNY   12   9  85 S3        29.89F
PINCHER CREEK  MOSUNNY   34  18  51 W18G32    29.97F WCI  23
$$

REGIONAL REPORTS...SASKATCHEWAN

CITY           SKY/WX    TMP DP  RH WIND       PRES   REMARKS
CORONACH         N/A     34  23  64 W8          N/A  WCI  27
CYPRESS HILLS    N/A     32  10  40 SW9         N/A  WCI  24
ESTEVAN        CLOUDY    21  19  93 W10       30.07S FOG     WCI  10
MOOSE JAW        N/A     34  23  64 W3          N/A
PRINCE ALBERT  FLURRIES  16  10  79 N3        30.05S
REGINA         FOG       21  19  93 W6        30.04S VSB 1   WCI  14
ROCKGLEN         N/A     27  19  74 SW8         N/A  WCI  18
SASKATOON      LGT SNOW  21  19  93 SW6       30.03F FOG     WCI  14
SWIFT CURRENT  SUNNY     37  21  52 W14       29.99F WCI  29
VAL MARIE        N/A     27  16  63 W3          N/A
$$




USA.gov is the U.S. government's official web portal to all federal, state and local government web resources and services.